GW4570 Weather Reports


time (UTC)temp
F
wind
direction
speed
knots
gust
knots
rain 1hr
in
rain 24hr
in
rain mn
in
humidity
%
barometer
mb
20260510192423 73 315 0.0 0.9 0.00 0.00 0.00 47 1014.6
20260510191919 74 3 0.0 0.0 0.00 0.00 0.00 46 1014.6
20260510191415 74 297 0.9 1.7 0.00 0.00 0.00 45 1014.5
20260510190912 75 301 1.7 1.7 0.00 0.00 0.00 43 1014.5
20260510190410 75 58 0.0 0.0 0.00 0.00 0.00 46 1014.3
20260510185906 75 197 0.0 1.7 0.00 0.00 0.00 46 1014.4
20260510185404 77 358 1.7 2.6 0.00 0.00 0.00 44 1014.2
20260510184901 78 18 0.9 0.9 0.00 0.00 0.00 45 1014.3
20260510184358 78 82 1.7 1.7 0.00 0.00 0.00 42 1014.2
20260510183857 80 134 1.7 2.6 0.00 0.00 0.00 39 1014.2
20260510183354 78 2 0.9 0.9 0.00 0.00 0.00 46 1014.5
20260510182849 78 350 0.9 1.7 0.00 0.00 0.00 45 1014.4
20260510182346 77 281 1.7 2.6 0.00 0.00 0.00 49 1014.5
20260510181842 76 326 0.9 0.9 0.00 0.00 0.00 43 1014.8
20260510181339 78 195 0.9 1.7 0.00 0.00 0.00 45 1014.8
20260510180835 75 336 0.0 1.7 0.00 0.00 0.00 49 1014.7
20260510180332 77 301 0.9 1.7 0.00 0.00 0.00 44 1014.6
20260510175829 77 294 2.6 2.6 0.00 0.00 0.00 50 1014.9
20260510175325 75 287 1.7 2.6 0.00 0.00 0.00 51 1014.8
20260510174822 72 318 0.0 0.0 0.00 0.00 0.00 50 1014.9
20260510174319 72 318 0.0 0.0 0.00 0.00 0.00 50 1015.0
20260510173815 74 303 2.6 3.5 0.00 0.00 0.00 51 1015.1
20260510173311 74 259 2.6 2.6 0.00 0.00 0.00 51 1015.3
20260510172807 75 342 3.5 3.5 0.00 0.00 0.00 51 1015.2
20260510172306 72 126 1.7 2.6 0.00 0.00 0.00 55 1015.2
20260510171800 73 289 1.7 2.6 0.00 0.00 0.00 51 1015.2
20260510171257 75 268 2.6 5.2 0.00 0.00 0.00 50 1015.6
20260510170754 75 268 2.6 5.2 0.00 0.00 0.00 50 1015.2
20260510170250 76 129 1.7 2.6 0.00 0.00 0.00 50 1015.2
20260510165746 73 290 2.6 2.6 0.00 0.00 0.00 52 1015.5
20260510165242 0 0.0 0.0 0.00 0.00 0.00 1015.3
20260510164740 0 0.0 0.0 0.00 0.00 0.00 1015.0
20260510164237 0 0.0 0.0 0.00 0.00 0.00 1015.2
20260510163732 0 0.0 0.0 0.00 0.00 0.00 1015.2
20260510163228 73 301 1.7 2.6 0.00 0.00 0.00 50 1015.3
20260510162727 73 301 1.7 2.6 0.00 0.00 0.00 50 1015.5
20260510162225 74 118 2.6 3.5 0.00 0.00 0.00 49 1015.7
20260510161720 0 0.0 0.0 0.00 0.00 0.00 1015.6
20260510161217 0 0.0 0.0 0.00 0.00 0.00 1015.5
20260510160714 0 0.0 0.0 0.00 0.00 0.00 1015.3
20260510160209 0 0.0 0.0 0.00 0.00 0.00 1015.3
20260510155705 0 0.0 0.0 0.00 0.00 0.00 1015.3
20260510155201 75 12 0.9 1.7 0.00 0.00 0.00 58 1015.6
20260510154657 75 12 0.9 1.7 0.00 0.00 0.00 58 1015.6
20260510154153 0 0.0 0.0 0.00 0.00 0.00 1015.7
20260510153648 0 0.0 0.0 0.00 0.00 0.00 1015.8
20260510153145 0 0.0 0.0 0.00 0.00 0.00 1015.6
20260510152641 0 0.0 0.0 0.00 0.00 0.00 1015.6
20260510152137 73 272 1.7 2.6 0.00 0.00 0.00 56 1015.7
20260510151634 73 272 1.7 2.6 0.00 0.00 0.00 56 1015.8
20260510151134 0 0.0 0.0 0.00 0.00 0.00 1015.9
20260510150634 0 0.0 0.0 0.00 0.00 0.00 1015.9
20260510150129 0 0.0 0.0 0.00 0.00 0.00 1015.8
20260510145626 0 0.0 0.0 0.00 0.00 0.00 1015.5
20260510145123 0 0.0 0.0 0.00 0.00 0.00 1015.8
20260510144618 0 0.0 0.0 0.00 0.00 0.00 1015.7
20260510144115 68 164 2.6 3.5 0.00 0.00 0.00 68 1015.7
20260510143610 68 164 2.6 3.5 0.00 0.00 0.00 68 1015.6
20260510143107 68 169 2.6 2.6 0.00 0.00 0.00 67 1015.6
20260510142604 66 254 3.5 3.5 0.00 0.00 0.00 74 1015.7
20260510142100 65 152 2.6 3.5 0.00 0.00 0.00 73 1015.7
20260510141557 65 155 1.7 2.6 0.00 0.00 0.00 74 1015.9
20260510141055 0 0.0 0.0 0.00 0.00 0.00 1015.7
20260510140551 0 0.0 0.0 0.00 0.00 0.00 1015.8
20260510140050 0 0.0 0.0 0.00 0.00 0.00 1015.9
20260510135546 0 0.0 0.0 0.00 0.00 0.00 1015.7
20260510135043 0 0.0 0.0 0.00 0.00 0.00 1015.9
20260510134540 0 0.0 0.0 0.00 0.00 0.00 1015.9
20260510134037 0 0.0 0.0 0.00 0.00 0.00 1016.1
20260510133532 0 0.0 0.0 0.00 0.00 0.00 1015.8
20260510133029 0 0.0 0.0 0.00 0.00 0.00 1015.9
20260510132526 0 0.0 0.0 0.00 0.00 0.00 1016.1
20260510132023 0 0.0 0.0 0.00 0.00 0.00 1016.1
20260510131520 0 0.0 0.0 0.00 0.00 0.00 1016.0
20260510131017 0 0.0 0.0 0.00 0.00 0.00 1016.1
20260510130513 0 0.0 0.0 0.00 0.00 0.00 1016.0
20260510130011 0 0.0 0.0 0.00 0.00 0.00 1016.1
20260510125507 0 0.0 0.0 0.00 0.00 0.00 1015.9
20260510125004 0 0.0 0.0 0.00 0.00 0.00 1015.9
20260510124500 0 0.0 0.0 0.00 0.00 0.00 1016.1
20260510123957 0 0.0 0.0 0.00 0.00 0.00 1016.0
20260510123452 0 0.0 0.0 0.00 0.00 0.00 1015.9
20260510122949 0 0.0 0.0 0.00 0.00 0.00 1015.8
20260510122444 0 0.0 0.0 0.00 0.00 0.00 1015.7
20260510121941 0 0.0 0.0 0.00 0.00 0.00 1015.5
20260510121438 0 0.0 0.0 0.00 0.00 0.00 1015.5
20260510120936 0 0.0 0.0 0.00 0.00 0.00 1015.6
20260510120432 0 0.0 0.0 0.00 0.00 0.00 1015.2
20260510115928 0 0.0 0.0 0.00 0.00 0.00 1015.5
20260510115426 0 0.0 0.0 0.00 0.00 0.00 1015.5
20260510114921 0 0.0 0.0 0.00 0.00 0.00 1015.7
20260510114419 0 0.0 0.0 0.00 0.00 0.00 1015.6
20260510113914 0 0.0 0.0 0.00 0.00 0.00 1015.7
20260510113410 0 0.0 0.0 0.00 0.00 0.00 1015.7
20260510112908 0 0.0 0.0 0.00 0.00 0.00 1015.7
20260510112405 0 0.0 0.0 0.00 0.00 0.00 1015.3
20260510111901 0 0.0 0.0 0.00 0.00 0.00 1015.7
20260510111357 0 0.0 0.0 0.00 0.00 0.00 1015.6
20260510110852 0 0.0 0.0 0.00 0.00 0.00 1015.3
20260510110343 0 0.0 0.0 0.00 0.00 0.00 1015.3
20260510105840 0 0.0 0.0 0.00 0.00 0.00 1015.2
20260510105339 0 0.0 0.0 0.00 0.00 0.00 1015.0
20260510104835 0 0.0 0.0 0.00 0.00 0.00 1014.8
20260510104332 0 0.0 0.0 0.00 0.00 0.00 1015.0
20260510103828 0 0.0 0.0 0.00 0.00 0.00 1015.0
20260510103326 0 0.0 0.0 0.00 0.00 0.00 1014.8
20260510102821 0 0.0 0.0 0.00 0.00 0.00 1014.5
20260510102317 0 0.0 0.0 0.00 0.00 0.00 1014.5
20260510101815 0 0.0 0.0 0.00 0.00 0.00 1014.8
20260510101313 0 0.0 0.0 0.00 0.00 0.00 1014.3
20260510100808 0 0.0 0.0 0.00 0.00 0.00 1014.6
20260510100306 0 0.0 0.0 0.00 0.00 0.00 1014.5
20260510095801 0 0.0 0.0 0.00 0.00 0.00 1014.5
20260510095257 0 0.0 0.0 0.00 0.00 0.00 1014.6
20260510094756 0 0.0 0.0 0.00 0.00 0.00 1014.3
20260510094251 0 0.0 0.0 0.00 0.00 0.00 1014.2
20260510093747 0 0.0 0.0 0.00 0.00 0.00 1014.1
20260510093245 0 0.0 0.0 0.00 0.00 0.00 1014.3
20260510092741 0 0.0 0.0 0.00 0.00 0.00 1014.1
20260510092237 0 0.0 0.0 0.00 0.00 0.00 1014.2
20260510091732 0 0.0 0.0 0.00 0.00 0.00 1013.9
20260510091230 0 0.0 0.0 0.00 0.00 0.00 1013.9
20260510090726 0 0.0 0.0 0.00 0.00 0.00 1014.0
20260510090224 0 0.0 0.0 0.00 0.00 0.00 1013.6
20260510085718 0 0.0 0.0 0.00 0.00 0.00 1014.0
20260510085213 0 0.0 0.0 0.00 0.00 0.00 1013.9
20260510084709 0 0.0 0.0 0.00 0.00 0.00 1013.5
20260510084207 0 0.0 0.0 0.00 0.00 0.00 1013.4
20260510083703 0 0.0 0.0 0.00 0.00 0.00 1013.3
20260510083201 0 0.0 0.0 0.00 0.00 0.00 1013.1
20260510082656 0 0.0 0.0 0.00 0.00 0.00 1013.2
20260510082152 0 0.0 0.0 0.00 0.00 0.00 1013.2
20260510081642 0 0.0 0.0 0.00 0.00 0.00 1013.2
20260510081138 0 0.0 0.0 0.00 0.00 0.00 1013.3
20260510080637 0 0.0 0.0 0.00 0.00 0.00 1013.2
20260510080134 0 0.0 0.0 0.00 0.00 0.00 1013.5
20260510075631 0 0.0 0.0 0.00 0.00 0.00 1013.3
20260510075128 0 0.0 0.0 0.00 0.00 0.00 1013.2
20260510074625 0 0.0 0.0 0.00 0.00 0.00 1013.5
20260510074120 0 0.0 0.0 0.00 0.00 0.00 1013.4
20260510073617 0 0.0 0.0 0.00 0.00 0.00 1013.2
20260510073114 0 0.0 0.0 0.00 0.00 0.00 1013.1
20260510072611 0 0.0 0.0 0.00 0.00 0.00 1013.3
20260510072107 0 0.0 0.0 0.00 0.00 0.00 1013.4
20260510071603 0 0.0 0.0 0.00 0.00 0.00 1013.3
20260510071100 41 283 0.0 0.0 0.00 0.00 0.00 99 1013.3
20260510070557 41 283 0.0 0.0 0.00 0.00 0.00 99 1013.2
20260510070054 0 0.0 0.0 0.00 0.00 0.00 1013.5
20260510065550 0 0.0 0.0 0.00 0.00 0.00 1013.0
20260510065046 0 0.0 0.0 0.00 0.00 0.00 1012.9
20260510064543 0 0.0 0.0 0.00 0.00 0.00 1012.9
20260510064040 0 0.0 0.0 0.00 0.00 0.00 1012.9
20260510063536 0 0.0 0.0 0.00 0.00 0.00 1012.9
20260510063034 0 0.0 0.0 0.00 0.00 0.00 1012.8
20260510062530 0 0.0 0.0 0.00 0.00 0.00 1013.2
20260510062025 0 0.0 0.0 0.00 0.00 0.00 1012.9
20260510061522 0 0.0 0.0 0.00 0.00 0.00 1013.2
20260510061018 0 0.0 0.0 0.00 0.00 0.00 1012.8
20260510060515 0 0.0 0.0 0.00 0.00 0.00 1013.0
20260510060011 0 0.0 0.0 0.00 0.00 0.00 1013.1
20260510055507 0 0.0 0.0 0.00 0.00 0.00 1013.1
20260510055005 0 0.0 0.0 0.00 0.00 0.00 1013.1
20260510054500 0 0.0 0.0 0.00 0.00 0.00 1013.0
20260510053956 0 0.0 0.0 0.00 0.00 0.00 1013.0
20260510053451 0 0.0 0.0 0.00 0.00 0.00 1013.1
20260510052947 43 307 0.0 0.0 0.00 0.00 0.00 97 1013.0
20260510052443 43 307 0.0 0.0 0.00 0.00 0.00 97 1013.2
20260510051940 43 307 0.0 0.0 0.00 0.00 0.00 96 1012.9
20260510051436 43 307 0.0 0.0 0.00 0.00 0.00 96 1013.1
20260510050932 43 307 0.0 0.0 0.00 0.00 0.00 96 1013.1
20260510050429 44 306 0.0 0.9 0.00 0.00 0.00 95 1013.1
20260510045927 44 307 0.0 1.7 0.00 0.00 0.00 95 1013.2
20260510045424 44 306 0.9 0.9 0.00 0.00 0.00 94 1012.9
20260510044920 46 306 0.0 0.0 0.00 0.00 0.00 93 1013.3
20260510044417 47 307 0.0 0.0 0.00 0.00 0.00 93 1013.3
20260510043914 47 307 0.0 0.0 0.00 0.00 0.00 95 1013.1
20260510043410 45 307 0.0 0.0 0.00 0.00 0.00 95 1013.1
20260510042908 45 306 0.0 0.0 0.00 0.00 0.00 94 1013.0
20260510042404 46 306 1.7 1.7 0.00 0.00 0.00 95 1013.0
20260510041900 45 306 1.7 1.7 0.00 0.00 0.00 95 1012.9
20260510041357 47 306 0.9 0.9 0.00 0.00 0.00 93 1012.8
20260510040855 47 306 0.9 0.9 0.00 0.00 0.00 93 1013.0
20260510040352 46 306 0.9 0.9 0.00 0.00 0.00 93 1013.0
20260510035847 46 306 0.0 0.0 0.00 0.00 0.00 93 1013.0
20260510035343 46 306 0.9 0.9 0.00 0.00 0.00 92 1013.1
20260510034839 47 306 0.9 1.7 0.00 0.00 0.00 92 1013.1
20260510034337 47 287 0.9 1.7 0.00 0.00 0.00 91 1012.9
20260510033833 47 284 0.0 0.0 0.00 0.00 0.00 92 1013.1
20260510033330 47 284 0.0 0.0 0.00 0.00 0.00 91 1012.9
20260510032826 47 284 0.0 0.0 0.00 0.00 0.00 91 1013.0
20260510032323 0 0.0 0.0 0.00 0.00 0.00 1012.8
20260510031819 0 0.0 0.0 0.00 0.00 0.00 1012.8
20260510031315 0 0.0 0.0 0.00 0.00 0.00 1013.0
20260510030815 0 0.0 0.0 0.00 0.00 0.00 1013.0
20260510030311 47 278 0.0 0.0 0.00 0.00 0.00 91 1013.3
20260510025809 47 278 0.0 0.0 0.00 0.00 0.00 91 1013.1
20260510025306 47 278 0.0 0.0 0.00 0.00 0.00 91 1013.3
20260510024802 0 0.0 0.0 0.00 0.00 0.00 1012.9
20260510024300 0 0.0 0.0 0.00 0.00 0.00 1012.9
20260510023756 0 0.0 0.0 0.00 0.00 0.00 1012.6
20260510023253 0 0.0 0.0 0.00 0.00 0.00 1012.8
20260510022749 0 0.0 0.0 0.00 0.00 0.00 1012.6
20260510022244 48 278 0.0 0.0 0.00 0.00 0.00 89 1012.6
20260510021743 48 278 0.0 0.0 0.00 0.00 0.00 89 1012.3
20260510021242 49 278 0.0 0.0 0.00 0.00 0.00 89 1012.4
20260510020737 49 278 0.0 0.0 0.00 0.00 0.00 88 1012.4
20260510020236 49 278 0.0 0.0 0.00 0.00 0.00 87 1012.2
20260510015733 49 278 0.0 0.0 0.00 0.00 0.00 86 1012.3
20260510015229 50 278 0.0 0.0 0.00 0.00 0.00 86 1012.2
20260510014724 50 278 0.0 0.0 0.00 0.00 0.00 85 1011.8
20260510014222 50 278 0.0 0.0 0.00 0.00 0.00 84 1011.8
20260510013717 51 278 0.0 0.0 0.00 0.00 0.00 83 1011.5
20260510013214 51 278 0.0 0.0 0.00 0.00 0.00 82 1011.6
20260510012713 52 278 0.0 0.0 0.00 0.00 0.00 81 1011.2
20260510012209 0 0.0 0.0 0.00 0.00 0.00 1011.3
20260510011704 54 278 0.0 0.0 0.00 0.00 0.00 76 1011.5
20260510011200 54 278 0.0 0.0 0.00 0.00 0.00 76 1011.5
20260510010656 0 0.0 0.0 0.00 0.00 0.00 1011.1
20260510010153 56 278 0.0 0.0 0.00 0.00 0.00 72 1011.3
20260510005649 56 278 0.0 0.0 0.00 0.00 0.00 72 1011.5
20260510005146 56 278 0.0 0.0 0.00 0.00 0.00 70 1011.2
20260510004645 56 278 0.0 0.0 0.00 0.00 0.00 70 1011.2
20260510004142 0 0.0 0.0 0.00 0.00 0.00 1010.9
20260510003639 0 0.0 0.0 0.00 0.00 0.00 1011.0
20260510003135 0 0.0 0.0 0.00 0.00 0.00 1011.1
20260510002635 0 0.0 0.0 0.00 0.00 0.00 1011.0
20260510002132 0 0.0 0.0 0.00 0.00 0.00 1011.1
20260510001628 0 0.0 0.0 0.00 0.00 0.00 1010.8
20260510001128 0 0.0 0.0 0.00 0.00 0.00 1010.8
20260510000627 0 0.0 0.0 0.00 0.00 0.00 1010.5
20260510000125 0 0.0 0.0 0.00 0.00 0.00 1010.5
20260509235621 0 0.0 0.0 0.00 0.00 0.00 1010.3
20260509235118 0 0.0 0.0 0.00 0.00 0.00 1010.2
20260509234614 0 0.0 0.0 0.00 0.00 0.00 1010.3
20260509234112 0 0.0 0.0 0.00 0.00 0.00 1010.2
20260509233609 0 0.0 0.0 0.00 0.00 0.00 1010.2
20260509233106 0 0.0 0.0 0.00 0.00 0.00 1010.3
20260509232603 0 0.0 0.0 0.00 0.00 0.00 1009.8
20260509232100 0 0.0 0.0 0.00 0.00 0.00 1009.9
20260509231556 0 0.0 0.0 0.00 0.00 0.00 1009.8
20260509231054 0 0.0 0.0 0.00 0.00 0.00 1010.0
20260509230550 0 0.0 0.0 0.00 0.00 0.00 1010.0
20260509230048 0 0.0 0.0 0.00 0.00 0.00 1010.0
20260509225543 0 0.0 0.0 0.00 0.00 0.00 1010.0
20260509225039 0 0.0 0.0 0.00 0.00 0.00 1010.2
20260509224535 0 0.0 0.0 0.00 0.00 0.00 1010.0
20260509224032 0 0.0 0.0 0.00 0.00 0.00 1010.2
20260509223529 0 0.0 0.0 0.00 0.00 0.00 1010.6
20260509223027 0 0.0 0.0 0.00 0.00 0.00 1010.6
20260509222522 0 0.0 0.0 0.00 0.00 0.00 1010.3
20260509222018 0 0.0 0.0 0.00 0.00 0.00 1010.2
20260509221514 0 0.0 0.0 0.00 0.00 0.00 1010.3
20260509221010 0 0.0 0.0 0.00 0.00 0.00 1010.2
20260509220506 0 0.0 0.0 0.00 0.00 0.00 1010.2
20260509220002 0 0.0 0.0 0.00 0.00 0.00 1010.2
20260509215458 0 0.0 0.0 0.00 0.00 0.00 1010.0
20260509214955 0 0.0 0.0 0.00 0.00 0.00 1010.2
20260509214453 0 0.0 0.0 0.00 0.00 0.00 1010.0
20260509213949 0 0.0 0.0 0.00 0.00 0.00 1009.9
20260509213445 0 0.0 0.0 0.00 0.00 0.00 1010.0
20260509212943 0 0.0 0.0 0.00 0.00 0.00 1009.8
20260509212440 0 0.0 0.0 0.00 0.00 0.00 1010.0
20260509211936 68 15 0.9 1.7 0.00 0.00 0.00 50 1009.8
20260509211431 68 15 0.9 1.7 0.00 0.00 0.00 50 1009.8
20260509210928 68 348 0.0 0.0 0.00 0.00 0.00 52 1009.8
20260509210426 69 85 0.9 0.9 0.00 0.00 0.00 50 1009.7
20260509205921 69 334 1.7 1.7 0.00 0.00 0.00 50 1009.8
20260509205420 68 325 0.0 0.9 0.00 0.00 0.00 50 1009.7
20260509204917 68 64 0.0 0.9 0.00 0.00 0.00 51 1009.8
20260509204413 69 313 0.0 0.9 0.00 0.00 0.00 50 1009.5
20260509203910 69 350 1.7 1.7 0.00 0.00 0.00 48 1009.3
20260509203406 71 16 1.7 1.7 0.00 0.00 0.00 47 1009.2
20260509202904 71 16 1.7 1.7 0.00 0.00 0.00 47 1009.3
20260509202359 68 296 1.7 1.7 0.00 0.00 0.00 47 1009.4
20260509201854 68 61 0.0 0.0 0.00 0.00 0.00 49 1009.4
20260509201350 68 276 0.0 0.0 0.00 0.00 0.00 51 1009.3
20260509200847 68 327 1.7 1.7 0.00 0.00 0.00 49 1009.4
20260509200342 68 123 0.0 0.9 0.00 0.00 0.00 47 1009.1
20260509195840 69 351 0.9 0.9 0.00 0.00 0.00 51 1009.2
20260509195339 69 276 0.0 0.9 0.00 0.00 0.00 51 1009.2
20260509194839 70 128 0.0 0.9 0.00 0.00 0.00 48 1009.2
20260509194335 70 182 2.6 5.2 0.00 0.00 0.00 49 1009.3
20260509193833 70 158 1.7 1.7 0.00 0.00 0.00 49 1009.3
20260509193332 70 90 0.0 0.9 0.00 0.00 0.00 48 1009.1